Hourly Data Report for October 01, 2014

All times are specified in Local Standard Time (LST). Add 1 hour to adjust for Daylight Saving Time where and when it is observed.

ARVIAT A
NUNAVUT

61°05'38.000" N
94°04'18.000" W
10.40 m
2300427
71174
YEK

Download Data

Hourly Data (October 2014)
Hourly Data Report for October 1, 2014
Temp Definition
°C
Dew Point Temp Definition
°C
Rel Hum Definition
%
Wind Dir Definition
10's deg

Wind Spd Definition
km/h
Visibility Definition
km
Stn Press Definition
kPa
Hmdx Definition


Wind Chill Definition


Weather Definition


TIME
00:00 Legend Double Dagger 0.7 0.6 99 11 48 2.4 101.01     Snow
01:00 Legend Double Dagger 0.6 0.5 99 11 43 2.4 100.92     Snow
02:00 Legend Double Dagger 0.6 0.5 99 10 43 2.4 100.86     Snow
03:00 Legend Double Dagger 0.6 0.5 99 10 45 2.8 100.79     Snow
04:00 Legend Double Dagger 0.8 0.7 99 10 46 8.1 100.75     Snow
05:00 Legend Double Dagger 1.3 1.0 98 10 45 6.4 100.66     Rain,Fog
06:00 Legend Double Dagger 1.7 1.3 97 10 50 4.8 100.62     Rain,Fog
07:00 Legend Double Dagger 2.1 1.8 98 10 50 3.2 100.58     Rain,Fog
08:00 Legend Double Dagger 2.3 2.0 98 10 52 2.8 100.53     Rain,Fog
09:00 Legend Double Dagger 2.8 2.5 98 10 50 4.0 100.49     Rain,Fog
10:00
11:00 Legend Double Dagger 3.3 3.0 98 11 46 4.0 100.43     Rain,Fog
12:00 Legend Double Dagger 3.5 3.2 98 11 46 6.4 100.37     Rain,Fog
13:00 Legend Double Dagger 3.8 3.4 97 10 39 11.3 100.31     Rain
14:00 Legend Double Dagger 4.0 3.6 97 10 46 8.1 100.25     Rain,Fog
15:00 Legend Double Dagger 4.1 3.7 97 10 39 4.8 100.24     Moderate Rain,Fog
16:00 Legend Double Dagger 3.9 3.6 98 10 39 4.0 100.17     Moderate Rain,Fog
17:00 Legend Double Dagger 3.9 3.5 97 9 43 4.8 100.14     Rain,Fog
18:00 Legend Double Dagger 3.6 3.0 96 LegendMM LegendMM LegendMM 100.09     LegendNANA
19:00 Legend Double Dagger 3.6 3.3 98 9 43 2.4 100.03     Rain,Fog
20:00 Legend Double Dagger 3.7 3.4 98 9 48 2.4 99.94     Rain,Fog
21:00 Legend Double Dagger 3.6 3.3 98 9 46 2.4 99.92     Rain,Fog
22:00 Legend Double Dagger 3.6 3.3 98 9 43 2.4 99.88     Moderate Rain,Fog
23:00 Legend Double Dagger 3.6 3.3 98 9 41 4.8 99.81     Moderate Rain,Fog

Notes on Data Quality.

Legend

  • E = Estimated
  • M = Missing
  • NA = Not Available
  • ‡ = Partner data that is not subject to review by the National Climate Archives
Date modified: